This is the latest recevied weather packets stored in our database for station/object K5FEP. If no packets are shown the sender has not sent any weather packets the latest 10 day(s).
| Time | Temp. | Humidity | Pressure | Rain* | Wind** | Luminosity | Snow |
|---|---|---|---|---|---|---|---|
| 1788649526 | 28.89° C | 69% | 1009.6 hPa | 0 mm | - | 30 W/m² | - |
| 1788649224 | 28.89° C | 69% | 1009.6 hPa | 0 mm | - | 33 W/m² | - |
| 1788648919 | 28.89° C | 69% | 1009.7 hPa | 0 mm | - | 32 W/m² | - |
| 1788648615 | 28.89° C | 69% | 1009.8 hPa | 0 mm | - | 22 W/m² | - |
| 1788648309 | 28.89° C | 68% | 1009.8 hPa | 0 mm | - | 22 W/m² | - |
| 1788648008 | 29.44° C | 68% | 1009.8 hPa | 0 mm | - | 33 W/m² | - |
| 1788647707 | 29.44° C | 66% | 1009.5 hPa | 0 mm | - | 51 W/m² | - |
| 1788647402 | 29.44° C | 67% | 1009.6 hPa | 0 mm | - | 92 W/m² | - |
| 1788647101 | 29.44° C | 66% | 1009.6 hPa | 0 mm | - | 115 W/m² | - |
| 1788646797 | 29.44° C | 66% | 1009.7 hPa | 0 mm | - | 107 W/m² | - |
| 1788646493 | 28.89° C | 67% | 1009.6 hPa | 0 mm | - | 69 W/m² | - |
| 1788646189 | 28.89° C | 67% | 1009.3 hPa | 0 mm | - | 53 W/m² | - |
| 1788645885 | 29.44° C | 66% | 1009.8 hPa | 0 mm | - | 58 W/m² | - |
| 1788645584 | 29.44° C | 66% | 1009.5 hPa | 0 mm | - | 83 W/m² | - |
| 1788645280 | 30° C | 65% | 1009.7 hPa | 0 mm | - | 110 W/m² | - |
| 1788644976 | 29.44° C | 64% | 1009.5 hPa | 0 mm | - | 146 W/m² | - |
| 1788644672 | 29.44° C | 65% | 1009.5 hPa | 0 mm | - | 157 W/m² | - |
| 1788644371 | 29.44° C | 65% | 1009.4 hPa | 0 mm | - | 164 W/m² | - |
| 1788644068 | 28.89° C | 66% | 1009.6 hPa | 0 mm | - | 70 W/m² | - |
| 1788643763 | 28.89° C | 66% | 1009.5 hPa | 0 mm | - | 64 W/m² | - |
| 1788643458 | 28.89° C | 66% | 1009.5 hPa | 0 mm | - | 83 W/m² | - |
| 1788643157 | 28.89° C | 65% | 1009.5 hPa | 0 mm | - | 74 W/m² | - |
| 1788642853 | 29.44° C | 64% | 1009.4 hPa | 0 mm | - | 70 W/m² | - |
| 1788642549 | 30° C | 63% | 1009.5 hPa | 0 mm | - | 59 W/m² | - |
| 1788642249 | 30° C | 62% | 1009 hPa | 0 mm | - | 51 W/m² | - |
* Rain latest hour (hover to see other rain measurements)
** Current wind speed in m/s (hover to see current wind gust speed)